Location: Auckland
(36.8670°S, 174.7670°E)
Time: 14:23:56
(UTC+13:00)

MetOp-B - Pass Details

Date: 24 January 2019
Orbit: 820 x 821 km, 98.7° (Epoch: 18 February)

Event Time Altitude Azimuth Distance (km) Brightness Sun altitude
Rises 23:17:05 0° 169° (S) 3,388 8.0 -25.4°
Reaches altitude 10° 23:19:28 10° 171° (S) 2,448 7.2 -25.7°
Maximum altitude 23:24:52 75° 254° (WSW) 860 4.2 -26.3°
Enters shadow 23:25:58 56° 321° (NW) 976 4.3 -26.4°
